Find Starlink 11109

NORAD ID: 60306 Int'l Des: 2024-133 Owner: SPXS Country: US Constellation: starlink operational
LEOCIRCULAR

当前视图

正在加载3D地球...

About Starlink 11109

Starlink 11109 (NORAD 60306) is a starlink constellation satellite (v2 mini d2c) launched Jul 28, 2024 by SPXS of US. It operates in LEO, CIRCULAR orbit with a mass of 960.00 kg.

关于 Starlink 11109

正在加载描述...

即将过境

Passes for default location (London). Set your location on the main map for personalized predictions.

高度历史

Loading altitude history...

两行轨道根数

1 60306C 24133F 26173.82131944 -.00050669 00000+0 -41747-3 0 1736
2 60306 53.1567 347.8959 0001070 80.9357 44.7120 15.69729067 10
Epoch: Jun 22, 2026 • Age: 15 hours

当前状态

高度 362.7 km
速度 7.69 km/s
星下点 -10.07°S, 90.43°W
发射日期 Jul 28, 2024
运行时间 1.9 years
类型 internet

技术详情

分类 Payload
质量 960.00 kg
干质量 910.00 kg
总质量 960.00 kg
长度 0.30 m
直径 4.10 m
跨度 29.00 m
形状 Box + pan
制造商 SPXS
平台类型 Starlink V2MD
阶段状态 In Orbit
所有者/国家 SPXS/US

Most Searched